FW6120 Weather Reports


time (UTC)temp
C
wind
direction
speed
KPH
gust
KPH
rain 1hr
cm
rain 24hr
cm
rain mn
cm
humidity
%
barometer
mb
20260507105844 10 257 1.6 3.2 0.00 0.00 0.00 85 1021.1
20260507105337 10 245 1.6 3.2 0.00 0.00 0.00 85 1021.1
20260507104837 10 239 1.6 3.2 0.00 0.00 0.00 85 1021.0
20260507104336 10 247 1.6 3.2 0.00 0.00 0.00 85 1020.9
20260507103838 10 228 0.0 0.0 0.00 0.00 0.00 84 1021.2
20260507103338 10 227 0.0 1.6 0.00 0.00 0.00 86 1021.3
20260507102837 10 227 0.0 1.6 0.00 0.00 0.00 86 1021.1
20260507102338 10 227 0.0 1.6 0.00 0.00 0.00 86 1021.2
20260507101837 10 224 0.0 0.0 0.00 0.00 0.00 85 1021.2
20260507101649 10 224 0.0 4.8 0.00 0.00 0.00 86 1021.3
20260507101205 10 224 0.0 4.8 0.00 0.00 0.00 86 1021.1
20260507100336 10 288 1.6 1.6 0.00 0.00 0.00 86 1021.3
20260507100152 10 289 0.0 1.6 0.00 0.00 0.00 86 1021.4
20260507095338 10 288 0.0 1.6 0.00 0.00 0.00 85 1021.4
20260507094859 10 290 0.0 0.0 0.00 0.00 0.00 85 1021.6
20260507094649 10 290 0.0 1.6 0.00 0.00 0.00 85 1021.4
20260507093837 10 291 0.0 1.6 0.00 0.00 0.00 85 1021.8
20260507093337 10 290 0.0 1.6 0.00 0.00 0.00 84 1021.6
20260507092837 10 291 0.0 1.6 0.00 0.00 0.00 84 1021.7
20260507092351 10 291 1.6 1.6 0.00 0.00 0.00 84 1021.7
20260507091855 11 290 0.0 3.2 0.00 0.00 0.00 84 1021.7
20260507091337 11 291 1.6 3.2 0.00 0.00 0.00 85 1021.6
20260507090837 11 290 0.0 1.6 0.00 0.00 0.00 84 1021.7
20260507090337 11 291 0.0 1.6 0.00 0.00 0.00 84 1021.8
20260507085837 11 291 0.0 1.6 0.00 0.00 0.00 84 1021.6
20260507085337 11 290 0.0 1.6 0.00 0.00 0.00 84 1021.8
20260507084838 11 291 0.0 1.6 0.00 0.00 0.00 84 1021.7
20260507084339 11 291 1.6 1.6 0.00 0.00 0.00 84 1021.7
20260507083838 11 291 0.0 0.0 0.00 0.00 0.00 84 1021.7
20260507083337 11 290 0.0 1.6 0.00 0.00 0.00 84 1021.8
20260507082838 11 290 0.0 1.6 0.00 0.00 0.00 84 1021.5
20260507082651 11 291 0.0 3.2 0.00 0.00 0.00 83 1021.7
20260507081837 11 291 0.0 3.2 0.00 0.00 0.00 83 1021.7
20260507081332 11 291 1.6 1.6 0.00 0.00 0.00 84 1021.9
20260507080835 11 290 0.0 1.6 0.00 0.00 0.00 83 1021.7
20260507080332 11 290 1.6 1.6 0.00 0.00 0.00 83 1021.7
20260507075837 11 291 0.0 4.8 0.00 0.00 0.00 83 1021.5
20260507075333 11 291 0.0 4.8 0.00 0.00 0.00 84 1021.6
20260507074825 11 290 1.6 3.2 0.00 0.00 0.00 83 1021.6
20260507074323 11 290 1.6 3.2 0.00 0.00 0.00 83 1021.7
20260507073824 11 290 1.6 3.2 0.00 0.00 0.00 83 1021.7
20260507073324 11 289 0.0 1.6 0.00 0.00 0.00 83 1021.7
20260507072822 11 290 0.0 3.2 0.00 0.00 0.00 82 1021.7
20260507072322 11 291 3.2 3.2 0.00 0.00 0.00 82 1021.7
20260507071823 11 287 1.6 3.2 0.00 0.00 0.00 82 1021.6
20260507071322 11 271 1.6 3.2 0.00 0.00 0.00 82 1021.7
20260507070823 11 271 1.6 3.2 0.00 0.00 0.00 82 1021.6
20260507070323 11 258 0.0 1.6 0.00 0.00 0.00 82 1021.8
20260507065822 11 258 0.0 4.8 0.00 0.00 0.00 83 1021.7
20260507065322 11 257 0.0 4.8 0.00 0.00 0.00 83 1021.7
20260507064823 11 263 3.2 4.8 0.00 0.00 0.00 83 1021.6
20260507064322 11 271 0.0 3.2 0.00 0.00 0.00 83 1021.6
20260507064134 11 271 0.0 1.6 0.00 0.00 0.00 82 1021.6
20260507063322 11 271 0.0 3.2 0.00 0.00 0.00 82 1021.8
20260507062918 11 271 1.6 3.2 0.00 0.00 0.00 82 1021.7
20260507061825 11 271 0.0 1.6 0.00 0.00 0.00 81 1021.7
20260507061323 11 271 0.0 1.6 0.00 0.00 0.00 81 1021.5
20260507060822 11 271 0.0 4.8 0.00 0.00 0.00 81 1021.7
20260507060322 11 312 0.0 4.8 0.00 0.00 0.00 81 1021.5
20260507060155 11 268 1.6 4.8 0.00 0.00 0.00 81 1021.7
20260507055644 11 267 0.0 9.7 0.00 0.00 0.00 81 1021.7
20260507054822 11 280 3.2 9.7 0.00 0.00 0.00 80 1021.6
20260507054718 11 287 4.8 6.4 0.00 0.00 0.00 80 1021.8
20260507053823 12 291 3.2 6.4 0.00 0.00 0.00 80 1021.7
20260507053326 12 329 4.8 6.4 0.00 0.00 0.00 80 1021.7
20260507052821 12 253 0.0 6.4 0.00 0.00 0.00 80 1021.7
20260507052325 12 230 1.6 3.2 0.00 0.00 0.00 79 1021.8
20260507051824 12 326 0.0 3.2 0.00 0.00 0.00 79 1021.8
20260507051322 12 225 0.0 3.2 0.00 0.00 0.00 79 1021.8
20260507051141 12 225 0.0 3.2 0.00 0.00 0.00 79 1021.6
20260507050320 12 236 1.6 3.2 0.00 0.00 0.00 79 1021.8
20260507045824 12 311 0.0 1.6 0.00 0.00 0.00 78 1021.7
20260507045322 12 311 0.0 3.2 0.00 0.00 0.00 79 1021.8
20260507044826 12 311 0.0 4.8 0.00 0.00 0.00 78 1021.8
20260507044730 12 311 0.0 9.7 0.00 0.00 0.00 78 1021.8
20260507044131 12 275 0.0 9.7 0.00 0.00 0.00 79 1021.9
20260507043322 12 303 1.6 4.8 0.00 0.00 0.00 79 1022.0
20260507042824 12 304 1.6 4.8 0.00 0.00 0.00 79 1021.8
20260507042322 12 304 1.6 4.8 0.00 0.00 0.00 78 1021.9
20260507041823 12 305 1.6 4.8 0.00 0.00 0.00 78 1021.7
20260507041322 12 303 1.6 4.8 0.00 0.00 0.00 78 1021.9
20260507040838 12 290 0.0 11.3 0.00 0.00 0.00 77 1021.6
20260507040830 12 329 1.6 6.4 0.00 0.00 0.00 78 1021.7
20260507035322 12 302 0.0 6.4 0.00 0.00 0.00 78 1021.7
20260507034811 13 319 3.2 6.4 0.00 0.00 0.00 77 1021.5
20260507034309 13 345 1.6 11.3 0.00 0.00 0.00 77 1021.6
20260507033810 13 354 1.6 12.9 0.00 0.00 0.00 77 1021.4
20260507033310 13 348 1.6 12.9 0.00 0.00 0.00 77 1021.7
20260507032811 13 325 1.6 12.9 0.00 0.00 0.00 77 1021.3
20260507032311 13 335 3.2 9.7 0.00 0.00 0.00 77 1021.3
20260507031810 13 356 3.2 9.7 0.00 0.00 0.00 77 1021.2
20260507031310 13 291 3.2 6.4 0.00 0.00 0.00 77 1021.1
20260507030810 13 341 4.8 9.7 0.00 0.00 0.00 77 1021.2
20260507030315 13 342 3.2 16.1 0.00 0.00 0.00 77 1021.0
20260507025917 13 292 3.2 16.1 0.00 0.00 0.00 77 1021.1
20260507024810 14 250 6.4 16.1 0.00 0.00 0.00 76 1020.7
20260507024331 14 259 4.8 14.5 0.00 0.00 0.00 76 1020.9
20260507024123 14 297 4.8 11.3 0.00 0.00 0.00 76 1020.9
20260507023310 15 319 3.2 11.3 0.00 0.00 0.00 75 1020.8
20260507022810 15 326 3.2 9.7 0.00 0.00 0.00 75 1020.6
20260507022311 15 269 4.8 9.7 0.00 0.00 0.00 74 1020.8
20260507021810 15 270 0.0 9.7 0.00 0.00 0.00 74 1020.7
20260507021638 15 313 1.6 11.3 0.00 0.00 0.00 74 1020.8
20260507020811 15 329 4.8 11.3 0.00 0.00 0.00 72 1020.7
20260507020314 15 18 4.8 14.5 0.00 0.00 0.00 72 1020.8
20260507015811 16 327 9.7 11.3 0.00 0.00 0.00 71 1020.9
20260507015311 16 335 3.2 9.7 0.00 0.00 0.00 71 1020.8
20260507014810 16 267 1.6 9.7 0.00 0.00 0.00 70 1020.7
20260507014310 16 326 1.6 9.7 0.00 0.00 0.00 71 1020.7
20260507013810 16 285 1.6 12.9 0.00 0.00 0.00 71 1020.8
20260507013310 16 274 4.8 16.1 0.00 0.00 0.00 71 1021.0
20260507012813 16 271 4.8 16.1 0.00 0.00 0.00 71 1020.9
20260507012310 16 335 8.0 20.9 0.00 0.00 0.00 72 1020.8
20260507011812 16 293 6.4 20.9 0.00 0.00 0.00 73 1021.0
20260507011310 16 269 11.3 14.5 0.00 0.00 0.00 71 1021.1
20260507010811 16 286 9.7 17.7 0.00 0.00 0.00 72 1020.9
20260507010310 16 284 3.2 22.5 0.00 0.00 0.00 72 1021.0
20260507010150 16 277 11.3 22.5 0.00 0.00 0.00 70 1020.8
20260507005626 16 266 11.3 20.9 0.00 0.00 0.00 69 1020.9
20260507004810 17 327 1.6 20.9 0.00 0.00 0.00 70 1020.8
20260507004619 17 293 3.2 17.7 0.00 0.00 0.00 69 1020.8
20260507003810 17 265 8.0 17.7 0.00 0.00 0.00 68 1021.0
20260507003624 18 279 8.0 14.5 0.00 0.00 0.00 65 1020.6
20260507002810 18 301 3.2 16.1 0.00 0.00 0.00 67 1020.8
20260507002309 18 346 6.4 16.1 0.00 0.00 0.00 67 1020.6
20260507001809 18 281 3.2 14.5 0.00 0.00 0.00 65 1020.7
20260507001310 17 303 3.2 14.5 0.00 0.00 0.00 69 1020.6
20260507000810 17 271 0.0 16.1 0.00 0.00 0.00 67 1020.7
20260507000310 17 326 6.4 16.1 0.00 0.00 0.00 66 1020.7
20260506235811 18 282 6.4 16.1 0.00 0.00 0.00 66 1020.6
20260506235310 18 281 6.4 16.1 0.00 0.00 0.00 63 1020.6
20260506234811 18 296 4.8 12.9 0.00 0.00 0.00 62 1020.6
20260506234316 18 336 4.8 17.7 0.00 0.00 0.00 64 1020.7
20260506234234 18 262 1.6 17.7 0.00 0.00 0.00 65 1020.6
20260506233324 18 225 0.0 9.7 0.00 0.00 0.00 66 1020.7
20260506232813 18 214 0.0 9.7 0.00 0.00 0.00 64 1020.6
20260506232323 17 215 1.6 12.9 0.00 0.00 0.00 64 1020.7
20260506232204 18 235 4.8 14.5 0.00 0.00 0.00 64 1020.8
20260506231310 18 281 8.0 14.5 0.00 0.00 0.00 64 1020.8
20260506230834 18 225 3.2 4.8 0.00 0.00 0.00 66 1020.7
20260506230706 18 231 0.0 9.7 0.00 0.00 0.00 66 1020.7
20260506225811 18 231 1.6 12.9 0.00 0.00 0.00 67 1020.9
20260506225316 17 241 4.8 14.5 0.00 0.00 0.00 66 1020.8
20260506224810 18 216 8.0 14.5 0.00 0.00 0.00 67 1020.8
20260506224655 18 273 0.0 20.9 0.00 0.00 0.00 69 1020.9
20260506223821 17 228 6.4 20.9 0.00 0.00 0.00 69 1020.8
20260506223311 17 195 6.4 11.3 0.00 0.00 0.00 66 1021.1
20260506222812 17 327 4.8 11.3 0.00 0.00 0.00 67 1021.0
20260506222313 17 337 1.6 14.5 0.00 0.00 0.00 70 1021.3
20260506221810 17 264 1.6 14.5 0.00 0.00 0.00 67 1021.1
20260506221707 17 229 3.2 9.7 0.00 0.00 0.00 69 1021.1
20260506220811 17 285 1.6 20.9 0.00 0.00 0.00 68 1021.2
20260506220329 17 144 0.0 9.7 0.00 0.00 0.00 70 1021.1
20260506220317 17 236 4.8 20.9 0.00 0.00 0.00 69 1021.3
20260506220245 17 239 4.8 14.5 0.00 0.00 0.00 70 1021.3
20260506214454 17 264 3.2 16.1 0.00 0.00 0.00 71 1021.3
20260506213313 16 236 3.2 12.9 0.00 0.00 0.00 76 1021.7
20260506212811 16 243 4.8 12.9 0.00 0.00 0.00 73 1021.5
20260506212312 16 220 6.4 11.3 0.00 0.00 0.00 73 1021.4
20260506211814 17 216 4.8 11.3 0.00 0.00 0.00 72 1021.4
20260506211311 17 175 8.0 11.3 0.00 0.00 0.00 71 1021.5
20260506210811 16 211 1.6 11.3 0.00 0.00 0.00 74 1021.7
20260506210324 16 205 8.0 9.7 0.00 0.00 0.00 76 1021.8
20260506205814 16 253 0.0 9.7 0.00 0.00 0.00 75 1021.8
20260506205323 16 210 1.6 9.7 0.00 0.00 0.00 75 1021.6
20260506204909 16 293 0.0 9.7 0.00 0.00 0.00 77 1021.7
20260506203811 15 221 6.4 11.3 0.00 0.00 0.00 78 1021.6
20260506203703 16 224 3.2 14.5 0.00 0.00 0.00 76 1021.6
20260506202812 16 247 9.7 14.5 0.00 0.00 0.00 77 1021.8
20260506202310 15 262 4.8 9.7 0.00 0.00 0.00 78 1021.6
20260506201811 15 218 4.8 14.5 0.00 0.00 0.00 79 1021.7
20260506201310 15 222 4.8 14.5 0.00 0.00 0.00 78 1021.5
20260506200810 15 175 4.8 11.3 0.00 0.00 0.00 81 1021.6
20260506200310 15 218 1.6 12.9 0.00 0.00 0.00 78 1021.4
20260506195810 15 261 6.4 12.9 0.00 0.00 0.00 79 1021.4
20260506195310 15 223 6.4 12.9 0.00 0.00 0.00 78 1021.5
20260506194810 15 156 8.0 12.9 0.00 0.00 0.00 79 1021.7
20260506194311 15 177 4.8 9.7 0.00 0.00 0.00 80 1021.7
20260506193810 15 226 3.2 11.3 0.00 0.00 0.00 77 1021.8
20260506193706 15 208 8.0 12.9 0.00 0.00 0.00 80 1021.8
20260506192810 15 218 6.4 12.9 0.00 0.00 0.00 78 1021.8
20260506192310 15 249 8.0 12.9 0.00 0.00 0.00 78 1021.8
20260506191810 15 243 3.2 12.9 0.00 0.00 0.00 79 1021.8
20260506191313 15 253 1.6 12.9 0.00 0.00 0.00 78 1021.9
20260506191141 15 239 3.2 11.3 0.00 0.00 0.00 77 1021.7
20260506190310 15 204 1.6 11.3 0.00 0.00 0.00 80 1021.8
20260506185810 15 252 4.8 16.1 0.00 0.00 0.00 80 1021.8
20260506185311 15 246 6.4 16.1 0.00 0.00 0.00 81 1021.8
20260506184810 15 257 4.8 12.9 0.00 0.00 0.00 80 1021.7
20260506184640 15 263 3.2 12.9 0.00 0.00 0.00 77 1021.6
20260506183810 15 255 3.2 9.7 0.00 0.00 0.00 80 1021.6
20260506183313 15 259 3.2 14.5 0.00 0.00 0.00 79 1021.4
20260506182810 16 261 9.7 14.5 0.00 0.00 0.00 79 1021.5
20260506182630 15 224 0.0 6.4 0.00 0.00 0.00 79 1021.8
20260506181810 15 276 4.8 6.4 0.00 0.00 0.00 82 1021.7
20260506181313 15 267 3.2 6.4 0.00 0.00 0.00 81 1021.5
20260506180810 15 18 3.2 6.4 0.00 0.00 0.00 81 1021.5
20260506180310 15 17 3.2 6.4 0.00 0.00 0.00 82 1021.5
20260506180146 15 17 3.2 6.4 0.00 0.00 0.00 82 1021.4
20260506175310 15 17 1.6 9.7 0.00 0.00 0.00 83 1021.5
20260506174813 15 17 3.2 9.7 0.00 0.00 0.00 81 1021.5
20260506174310 15 8 3.2 9.7 0.00 0.00 0.00 82 1021.4
20260506173810 15 353 1.6 12.9 0.00 0.00 0.00 82 1021.2
20260506173310 15 354 1.6 12.9 0.00 0.00 0.00 81 1021.4
20260506172810 15 334 3.2 4.8 0.00 0.00 0.00 83 1021.4
20260506172310 14 314 0.0 4.8 0.00 0.00 0.00 81 1021.2
20260506171810 14 283 1.6 3.2 0.00 0.00 0.00 83 1021.3
20260506171311 14 282 0.0 4.8 0.00 0.00 0.00 83 1021.2
20260506170809 14 266 0.0 4.8 0.00 0.00 0.00 82 1021.0
20260506170332 14 241 0.0 1.6 0.00 0.00 0.00 82 1021.2
20260506165810 14 301 0.0 1.6 0.00 0.00 0.00 83 1021.3
20260506165310 14 301 1.6 4.8 0.00 0.00 0.00 83 1021.3
20260506164811 14 301 1.6 4.8 0.00 0.00 0.00 83 1021.4
20260506164310 14 301 3.2 4.8 0.00 0.00 0.00 84 1021.1
20260506163810 14 249 0.0 4.8 0.00 0.00 0.00 84 1021.3
20260506163327 14 269 1.6 4.8 0.00 0.00 0.00 84 1021.2
20260506162812 14 263 3.2 4.8 0.00 0.00 0.00 84 1021.2
20260506162311 13 225 3.2 3.2 0.00 0.00 0.00 86 1021.1
20260506161810 13 224 0.0 3.2 0.00 0.00 0.00 83 1021.0
20260506161309 13 224 0.0 3.2 0.00 0.00 0.00 85 1021.2
20260506160815 13 224 0.0 4.8 0.00 0.00 0.00 84 1021.1
20260506160355 13 224 0.0 6.4 0.00 0.00 0.00 83 1020.7
20260506160334 13 224 3.2 4.8 0.00 0.00 0.00 84 1020.6
20260506155620 13 224 1.6 9.7 0.00 0.00 0.00 85 1020.9
20260506154811 13 212 3.2 9.7 0.00 0.00 0.00 84 1020.8
20260506154313 13 184 8.0 9.7 0.00 0.00 0.00 85 1020.7
20260506153810 13 189 0.0 6.4 0.00 0.00 0.00 87 1020.5
20260506153311 13 164 3.2 9.7 0.00 0.00 0.00 87 1020.4
20260506152810 12 138 4.8 11.3 0.00 0.00 0.00 88 1020.5
20260506152618 12 179 1.6 11.3 0.00 0.00 0.00 88 1020.7
20260506151810 12 141 3.2 4.8 0.00 0.00 0.00 90 1020.7
20260506151310 12 241 0.0 1.6 0.00 0.00 0.00 89 1021.3
20260506151124 12 241 0.0 3.2 0.00 0.00 0.00 91 1021.0
20260506150617 12 241 1.6 3.2 0.00 0.00 0.00 91 1021.0
20260506145811 12 242 1.6 6.4 0.00 0.00 0.00 90 1021.0
20260506145619 12 222 0.0 6.4 0.00 0.00 0.00 89 1021.1
20260506144810 12 233 1.6 9.7 0.00 0.00 0.00 90 1020.8
20260506144311 12 219 1.6 9.7 0.00 0.00 0.00 90 1020.8
20260506143810 12 239 1.6 9.7 0.00 0.00 0.00 90 1020.9
20260506143631 12 213 3.2 4.8 0.00 0.00 0.00 90 1020.8
20260506142810 12 289 0.0 4.8 0.00 0.00 0.00 90 1020.8
20260506142309 12 303 1.6 3.2 0.00 0.00 0.00 90 1020.8
20260506141811 12 201 0.0 3.2 0.00 0.00 0.00 90 1020.6
20260506141311 12 270 0.0 4.8 0.00 0.00 0.00 90 1020.4
20260506140809 12 245 1.6 4.8 0.00 0.00 0.00 90 1020.6
20260506140310 12 221 0.0 3.2 0.00 0.00 0.00 90 1020.3
20260506135810 12 221 0.0 3.2 0.00 0.00 0.00 91 1020.6
20260506135310 12 221 0.0 4.8 0.00 0.00 0.00 91 1020.3
20260506134810 12 259 1.6 4.8 0.00 0.00 0.00 91 1020.4
20260506134312 12 232 0.0 1.6 0.00 0.00 0.00 91 1020.3
20260506133812 12 232 0.0 1.6 0.00 0.00 0.00 91 1020.0
20260506133617 12 231 0.0 1.6 0.00 0.00 0.00 92 1020.3
20260506132809 12 232 0.0 1.6 0.00 0.00 0.00 92 1020.2
20260506132310 12 232 0.0 3.2 0.00 0.00 0.00 92 1020.0
20260506132125 12 232 0.0 3.2 0.00 0.00 0.00 91 1019.9
20260506131310 12 232 0.0 3.2 0.00 0.00 0.00 91 1019.9
20260506130812 12 231 1.6 3.2 0.00 0.00 0.00 91 1019.6
20260506130313 12 247 0.0 1.6 0.00 0.00 0.00 92 1019.6
20260506130223 12 286 0.0 0.0 0.00 0.00 0.00 92 1019.7
20260506125311 12 286 0.0 0.0 0.00 0.00 0.00 92 1019.6
20260506125117 12 286 0.0 0.0 0.00 0.00 0.00 91 1019.7
20260506124310 12 286 0.0 1.6 0.00 0.00 0.00 91 1019.6
20260506123810 12 287 1.6 1.6 0.00 0.00 0.00 91 1019.4
20260506123311 12 287 0.0 0.0 0.00 0.00 0.00 91 1019.8
20260506122835 12 286 0.0 1.6 0.00 0.00 0.00 90 1019.6
20260506122310 12 287 0.0 1.6 0.00 0.00 0.00 90 1019.5
20260506121811 12 286 0.0 0.0 0.00 0.00 0.00 90 1019.5
20260506121418 12 286 0.0 1.6 0.00 0.00 0.00 90 1019.5
20260506120310 12 287 0.0 1.6 0.00 0.00 0.00 91 1019.6
20260506115819 12 287 0.0 0.0 0.00 0.00 0.00 90 1019.5
20260506115310 12 287 0.0 1.6 0.00 0.00 0.00 91 1019.7
20260506114810 12 287 0.0 1.6 0.00 0.00 0.00 90 1019.6
20260506114310 12 287 0.0 0.0 0.00 0.00 0.00 90 1019.3
20260506113810 12 287 0.0 0.0 0.00 0.00 0.00 90 1019.5
20260506113310 12 287 0.0 0.0 0.00 0.00 0.00 90 1019.3
20260506112810 12 287 0.0 1.6 0.00 0.00 0.00 90 1019.1
20260506112310 12 287 0.0 3.2 0.00 0.00 0.00 89 1019.1
20260506111811 12 287 0.0 3.2 0.00 0.00 0.00 90 1019.1
20260506111310 12 287 1.6 4.8 0.00 0.00 0.00 89 1019.1
20260506110810 12 287 3.2 4.8 0.00 0.00 0.00 90 1019.1